Location: Sceptre
(50.8619°N, 109.2670°W)
Time: 10:29:19
(UTC+00:00)

UKube-1 - Visible Passes

Search period start: 25 June 2022 00:00
Search period end: 05 July 2022 00:00
Orbit: 610 x 614 km, 98.4° (Epoch: 24 June)

Date Brightness Start Highest point End Pass type
(mag) Time Alt. Az. Time Alt. Az. Time Alt. Az.
25 Jun ? 04:29:48 10° NE 04:33:21 24° E 04:36:52 10° SSE visible
25 Jun ? 06:05:20 10° N 06:09:25 42° WNW 06:13:29 10° SW visible
26 Jun ? 04:44:23 10° NNE 04:48:18 33° E 04:52:01 11° SSE visible
26 Jun ? 06:20:20 10° N 06:24:11 32° WNW 06:27:59 10° SW visible
27 Jun ? 04:59:03 10° NNE 05:03:13 45° E 05:07:00 12° S visible
27 Jun ? 06:35:24 10° N 06:38:54 24° WNW 06:42:22 10° WSW visible
28 Jun ? 05:13:48 10° NNE 05:18:05 62° ESE 05:21:58 12° S visible
28 Jun ? 06:50:33 10° NNW 06:53:35 19° WNW 06:56:36 10° WSW visible
29 Jun ? 05:28:35 10° NNE 05:32:56 86° ESE 05:36:57 12° SSW visible
29 Jun ? 07:05:50 10° NNW 07:08:14 15° NW 07:10:37 10° W visible
30 Jun ? 05:43:26 10° N 05:47:45 70° WNW 05:51:54 11° SSW visible
30 Jun ? 07:21:29 10° NW 07:22:51 11° NW 07:24:14 10° WNW visible
01 Jul ? 04:23:05 10° NE 04:26:20 20° E 04:29:33 10° SE visible
01 Jul ? 05:58:20 10° N 06:02:31 51° WNW 06:06:41 10° SW visible
02 Jul ? 04:37:34 10° NE 04:41:17 27° E 04:44:50 11° SSE visible
02 Jul ? 06:13:16 10° N 06:17:16 38° WNW 06:21:14 10° SW visible
03 Jul ? 04:52:10 10° NNE 04:56:11 37° E 04:59:46 12° SSE visible
03 Jul ? 06:28:17 10° N 06:31:59 29° WNW 06:35:40 10° WSW visible
04 Jul ? 05:06:51 10° NNE 05:11:04 51° E 05:14:43 13° S visible
04 Jul ? 06:43:21 10° N 06:46:40 22° WNW 06:49:58 10° WSW visible
